Regional Weather Roundup
Issued by NWS Upton, NY

Current Version | Previous Version | Graphics & Text | Print | Product List | Glossary Off
Versions: 1 2 3 4 5 6 7 8 9 10 11 12 13 14 15 16 17 18 19 20 21 22 23 24 25 26 27 28 29 30 31 32 33 34 35 36 37 38 39 40 41 42 43 44 45 46 47 48 49 50

000
ASUS41 KOKX 241108
RWROKX

REGIONAL WEATHER ROUNDUP
NATIONAL WEATHER SERVICE NEW YORK NY
700 AM EDT SAT SEP 24 2016

NOTE: "FAIR" INDICATES FEW OR NO CLOUDS BELOW 12,000 FEET WITH NO
SIGNIFICANT WEATHER AND/OR OBSTRUCTIONS TO VISIBILITY.

NYZ071-072-176-178-NJZ106-104-241200-
NEW YORK CITY METRO AREA

CITY           SKY/WX    TMP DP  RH WIND       PRES   REMARKS
Central Park   CLOUDY    59  55  87 VRB7      30.12R
LaGuardia APRT CLOUDY    60  56  86 N13       30.09R
Kennedy INTL   CLOUDY    60  57  89 N13       30.08R
Newark/Liberty CLOUDY    60  56  86 N14       30.09R
Bronx Bot Gard   N/A     55  52  88 N3        30.11R
Wall St Helipt CLOUDY    63  57  82 NE9G18    30.09R
Teterboro      CLOUDY    59  52  77 NE13G18   30.09R
$$

NYZ177-179-078>081-241200-
LONG ISLAND NEW YORK

CITY           SKY/WX    TMP DP  RH WIND       PRES   REMARKS
Farmingdale    CLOUDY    60  58  92 NE10      30.08R
MacArthur/ISP  CLOUDY    59  57  93 NE9       30.08R
Shirley        CLOUDY    58  55  90 N6        30.08R
Riverhead      NOT AVBL
Westhampton    CLOUDY    59  53  80 N17       30.09R
Southampton    NOT AVBL
Bridgehampton  NOT AVBL
East Hampton   CLOUDY    58  53  84 NE13G18   30.07R
Montauk          N/A     58  54  86 NE10G22   30.09R
$$

NYZ052-065-067-241200-
HUDSON VALLEY

CITY           SKY/WX    TMP DP  RH WIND       PRES   REMARKS
White Plains   CLOUDY    55  53  93 NE6       30.10R FOG
Newburgh       MOCLDY    57  52  82 NE7       30.14R
Montgomery     CLOUDY    58  48  69 NE9       30.13R
Poughkeepsie   CLOUDY    56  50  80 N6        30.12R
Albany         PTCLDY    48  46  93 N3        30.17R
$$

NJZ001-105-106-008-010-013-015-019>022-104-241200-
NEW JERSEY

CITY           SKY/WX    TMP DP  RH WIND       PRES   REMARKS
Newark/Liberty CLOUDY    60  56  86 N14       30.09R
Teterboro      CLOUDY    59  52  77 NE13G18   30.09R
Caldwell       CLOUDY    58  54  86 NE5       30.10R
Morristown     CLOUDY    57  55  94 NE7       30.10R
Somerville     CLOUDY    61  53  75 N6        30.08R
Linden         NOT AVBL
Sussex         CLOUDY    57  52  83 NE7       30.13R
Abdover          N/A     57  52  83 VRB6      30.12R
Trenton        CLOUDY    61  54  77 NE9       30.06R
Millville      CLOUDY    68  66  93 NE15      30.02R
Atlantic City  CLOUDY    66  63  90 N10       30.02R
Wrightstown    CLOUDY    64  59  85 NE10      30.02R
Toms River     CLOUDY    64  61  90 N9        30.05R
Belmar         CLOUDY    62  59  90 N8        30.06R
$$

PAZ047>061-062-071-241200-
EASTERN PENNSYLVANIA

CITY           SKY/WX    TMP DP  RH WIND       PRES   REMARKS
Philadelphia   CLOUDY    65  58  78 NE10      30.05R
Allentown      CLOUDY    60  52  74 NE10      30.10R
Scranton       CLOUDY    59  54  83 NE12      30.13R
$$

CTZ002-004>006-009-010-012-RIZ004-006-007-MAZ004-011-015-241200-
SOUTHERN NEW ENGLAND
 IN CT

CITY           SKY/WX    TMP DP  RH WIND       PRES   REMARKS
Bradley INTL   MOCLDY    53  48  83 N7        30.13R
Hartford       CLOUDY    57  52  83 N8        30.11R
Danbury        CLOUDY    55  49  80 N9        30.12R
Wtrbury/Oxford MOCLDY    54  46  76 NE5       30.12R
Bridgeport     CLOUDY    58  54  86 NE10      30.10R
Meriden        CLOUDY    56  52  86 N6        30.11R
New Haven      CLOUDY    56  54  93 NE7       30.11R
Chester        CLOUDY    55  54  94 N3        30.10R
Groton         CLOUDY    58  54  86 N6        30.08R
Wilimantic     CLOUDY    56  54  93 N5        30.11R

 IN RI

CITY           SKY/WX    TMP DP  RH WIND       PRES   REMARKS
Providence     MOCLDY    57  51  80 N12       30.10R
Block Island   CLOUDY    58  54  86 NE15G22   30.08R
Westerly       CLOUDY    57  52  83 NE3       30.09R
 IN MA

CITY           SKY/WX    TMP DP  RH WIND       PRES   REMARKS
Boston         CLOUDY    56  48  74 N9        30.11R
Worcester      CLOUDY    51  47  86 N7        30.12R
Westfield      CLOUDY    52  45  77 N8        30.13R
Provincetown   CLOUDY    59  47  64 NE12G18   30.09R
Nantucket      CLOUDY    59  51  75 N14       30.05R
$$

ANZ330-335-338-340-345-350-353-355-241200-
COASTAL MARINE OBSERVATIONS


STATION/POSITION TIME  SKY/WX   TEMP    WIND        PRES    VSBY  WAVE
                                AIR SEA DIR/SP/G                  HT/PER
                 (UTC)          (F)     (DEG/KT/KT) (MB)    (MI)  (FT/S)
NY HARB ENTRANCE 1050            65 72   40/ 17/ 21 1016.8          5/11
20S FIRE ISLAND  1050            64 71   50/ 19/ 23 1016.3          6/ 6
GREAT SOUTH BAY  1030            62 74   50/ 14/ 19   N/A
23 SSW MONTAUK P 1050            62 69   40/ 19/ 25 1017.4          6/ 6
15 E BARNEGAT LI 1000               73                N/A           6/11
HUDSON CANYON    0950            70 71              1014.8          4/11
KINGS POINT      1036            60 74              1018.4
EXECUTION ROCKS  1045            60      20/ 16/ 21   N/A
CENTRAL LI SOUND 1045            59 73   50/ 17/ 21   N/A           2/ 3
EASTERN LI SOUND NOT AVBL
ROBBINS REEF     1042            61      40/ 15/ 21 1018.5
$$


>>>>>>>>>>>>>>>>>>>>>>>>>>>> KEY <<<<<<<<<<<<<<<<<<<<<<<<<<<
>                                                          <
>     SKY/WX - Sky Condition/Present Weather               <
>     TMP    - Temperature in Fahrenheit                   <
>     DP     - Dew Point in Fahrenheit                     <
>     RH     - Relative Humidity in Percent                <
>     WIND   - Direction (from) and Speed in MPH           <
>     PRES   - Mean Sea Level Pressure (inches of Hg)      <
>     WCI    - Wind Chill Index                            <
>     VSB    - VISIBILITY IN MILES                         <
>     HX     - HEAT INDEX                                  <
>     TC     - TEMPERATURE IN CELSIUS                      <
>     VRB    - VARIABLE WIND DIRECTION                     <
>                                                          <
>>>>>>>>>>>>>>>>>>>>>>>>>>>> KEY <<<<<<<<<<<<<<<<<<<<<<<<<<<




USA.gov is the U.S. government's official web portal to all federal, state and local government web resources and services.